Regional Weather Roundup
Issued by NWS

Home | Current Version | Previous Version | Graphics & Text | Print | Product List | Glossary On
Versions: 1 2 3 4 5 6 7 8 9 10 11 12 13 14 15 16 17 18 19 20 21 22 23 24 25 26 27
000
ASUS45 KTFX 231810
RWRMT
MONTANA REGIONAL WEATHER ROUNDUP
NATIONAL WEATHER SERVICE GREAT FALLS MT
1200 PM MDT THU MAR 23 2017

NOTE: "FAIR" INDICATES FEW OR NO CLOUDS BELOW 12000 FEET WITH NO
SIGNIFICANT WEATHER AND/OR OBSTRUCTIONS TO VISIBILITY.

MTZ001>007-043-231900-
WEST OF THE DIVIDE

CITY           SKY/WX    TMP DP  RH WIND       PRES   REMARKS
KALISPELL      CLOUDY    44  31  60 W8        29.99R
MISSOULA       CLOUDY    46  26  45 W7        30.01F
BUTTE          CLOUDY    42  22  44 NW9G18    29.92F
MULLAN PASS    MIX PCPN  26  25  96 CALM      29.98R VSB 1
ANACONDA         N/A     45  18  33 W14G22    29.93F
DEER LODGE       N/A     43  25  49 NW14G21   29.96S
EUREKA           N/A     46  25  42 S8        30.00R
HAMILTON         N/A     46  25  42 N6        30.00R
PLAINS           N/A     46  28  49 W8        30.03R
RONAN            N/A     46  27  48 SW12      30.05R
$$

MTZ008-052>055-231900-
SOUTHWEST MONTANA

CITY           SKY/WX    TMP DP  RH WIND       PRES   REMARKS
BOZEMAN        CLOUDY    49  29  46 NW15      29.90F
DILLON         CLOUDY    46  26  45 E6        29.89F
W YELLOWSTONE  CLOUDY    39  25  56 N14       29.86R WCI  31
ENNIS          SUNNY     45  28  53 NW13G20   29.94R
THREE FORKS      N/A     49 -35   2 SE3       29.91F
TWIN BRIDGES     N/A     47  25  42 N13       29.90S
$$

MTZ009-010-012-014-046-048-049-054-231900-
EAST SLOPES AND CENTRAL MONTANA

CITY           SKY/WX    TMP DP  RH WIND       PRES   REMARKS
CUT BANK       SUNNY     49  23  36 W24G35    29.83S
GREAT FALLS    SUNNY     52  21  29 W17G28    29.86R
MALMSTROM AFB  MOSUNNY   51  22  31 W14G25    29.87R
HELENA         MOSUNNY   51  25  36 W16G26    29.90F
AUGUSTA          N/A     47  18  32 W20       29.86R
BOWMANS CRNR     N/A     47  21  36 W9        29.86R
CHOTEAU          N/A     50  19  29 W17G24    29.87S
CONRAD           N/A     50  26  39 SW16      29.89R
FAIRFIELD        N/A     50  17  27 W16G24    29.85R
POWER            N/A     50  19  29 W12G20    29.85R
RAYNESFORD       N/A     49  22  35 W9G26     29.86S
$$

MTZ011-013-016-021-045-047-050-051-231900-
NORTH CENTRAL MONTANA

CITY           SKY/WX    TMP DP  RH WIND       PRES   REMARKS
HAVRE          SUNNY     55  30  38 W16G25    29.82F
LEWISTOWN      SUNNY     50  28  42 NW9G20    29.84S
N BAR RANCH    CLOUDY    48  28  46 NW14      29.85S
CHINOOK          N/A     54  30  40 W13       29.82S
DENTON           N/A     51  25  36 NW17      29.81S
FORT BENTON      N/A     55  23  28 MISG      29.85F
GEYSER           N/A     50  24  36 W23G36    29.84S
GRASS RANGE      N/A     52  28  38 NW14G25   29.80S
STANFORD         N/A     50  26  38 NW23G29   29.83S
WINIFRED         N/A     51  28  41 W16G24    29.83S
$$

MTZ017>020-022>027-061-062-231900-
NORTHEAST MONTANA

CITY           SKY/WX    TMP DP  RH WIND       PRES   REMARKS
GLASGOW        SUNNY     51  31  46 NW8       29.78S
JORDAN           N/A     59  31  34 NW17      29.79S
SIDNEY         CLOUDY    47  39  74 CALM      29.77S
WOLF POINT     MOSUNNY   51  38  60 VRB3      29.78S
MALTA          SUNNY     55  34  44 W14G21    29.79F
PLENTYWOOD       N/A     46  37  71 NE3       29.77F
POPLAR           N/A     48  36  61 CALM      29.78S
SCOBEY           N/A     50  29  44 S6        29.78R
$$

MTZ028>42-056>058-231900-
SOUTHCENTRAL AND SOUTHEAST MONTANA

CITY           SKY/WX    TMP DP  RH WIND       PRES   REMARKS
BAKER          LGT RAIN  45  41  86 W7        29.78S
BILLINGS       CLOUDY    50  39  66 E5        29.83R
LIVINGSTON     PTSUNNY   49  30  48 SW13      29.87S
MILES CITY     LGT RAIN  50  45  83 NW9       29.80R
BIG TIMBER     PTSUNNY   48  30  49 W21G26    29.87S
EKALAKA          N/A     43  39  85 N2        29.79R
FORSYTH          N/A     46  46 100 CALM      29.80F
HARLOWTON        N/A     51  27  39 N3        29.82F
LAUREL           N/A     49  36  61 E5        29.83S
$$

REGIONAL REPORTS...DAKOTAS

CITY           SKY/WX    TMP DP  RH WIND       PRES   REMARKS
WILLISTON      CLOUDY    49  37  63 N8        29.76F
MINOT          CLOUDY    47  36  65 NW9       29.73F
DICKINSON      CLOUDY    56  30  37 NE13      29.70F
BEACH            N/A    N/A N/A N/A MISG        N/A
TIOGA            N/A     43  43 100 CALM      29.76F
WATFORD CITY     N/A     46  39  76 CALM      29.74S
BISMARCK       LGT RAIN  38  36  92 NE7       29.74F
GRAND FORKS    RAIN      35  34  96 S7        29.82F FOG     WCI  29
FARGO          CLOUDY    42  31  64 S18G30    29.83R
BUFFALO SD       N/A     46  43  89 NW7       29.70R
RAPID CITY     SUNNY     59  41  51 N13       29.63F
$$

REGIONAL REPORTS...WYOMING/IDAHO/WASHINGTON

CITY           SKY/WX    TMP DP  RH WIND       PRES   REMARKS
GILLETTE       RAIN      42  40  92 N17       29.75R FOG
SHERIDAN       LGT RAIN  44  40  85 NW6       29.80R
BUFFALO WY     LGT RAIN  41  37  86 NW18G26   29.77S FOG
CODY           CLOUDY    44  31  60 N21G32    29.79R
YELLOWSTONE LA   N/A     36  26  67 NW9G23    29.83S WCI  29
IDAHO FALLS    CLOUDY    48  33  56 NW15      29.84S
SALMON         CLOUDY    48  23  37 E6        29.95R
BOISE          SUNNY     49  32  52 NW15      30.03R
SPOKANE        PTSUNNY   41  30  65 SW13      30.06R
$$

REGIONAL REPORTS...ALBERTA

CITY           SKY/WX    TMP DP  RH WIND       PRES   REMARKS
EDMONTON       CLOUDY    27  23  86 N6        29.83R WCI  20
CALGARY        MOSUNNY   50  14  23 W22G29    29.74R
LETHBRIDGE     MOSUNNY   52  23  32 W32G40    29.79R
MEDICINE HAT   MOSUNNY   57  27  30 W22G29    29.75F
WATERTON GATE    N/A     45  21  39 SW23G36     N/A
CARDSTON         N/A     46  21  36 W16G29      N/A
MILK RIVER       N/A     52  23  32 W20G28      N/A
$$

REGIONAL REPORTS...SASKATCHEWAN

CITY           SKY/WX    TMP DP  RH WIND       PRES   REMARKS
SWIFT CURRENT  SUNNY     46  34  61 W6        29.75F
REGINA         MOSUNNY   41  30  65 N6        29.79S
SASKATOON      MOSUNNY   32  21  64 N3        29.84S
CYPRESS HILLS    N/A     46  19  34 W14G22      N/A
VAL MARIE        N/A     54  28  37 NW17        N/A
ROCKGLEN         N/A     52  32  46 NW10        N/A
ASSINIBOIA       N/A     23  19  86 SE5         N/A
$$




USA.gov is the U.S. government's official web portal to all federal, state and local government web resources and services.